Time,TemperatureF,DewpointF,PressureIn,WindDirection,WindDirectionDegrees,WindSpeedMPH,WindSpeedGustMPH,Humidity,HourlyPrecipIn,Conditions,Clouds,dailyrainin,SolarRadiationWatts/m^2,SoftwareType,DateUTC
2013-04-27 00:02:00,77.0,65.0,-100.00,North,8,7.0,10.0,66,0.00,,,-99.99,1.000000,,2013-04-27 10:02:00,
2013-04-27 00:12:00,77.0,65.0,-100.00,North,8,7.0,10.0,66,0.00,,,-99.99,1.000000,,2013-04-27 10:12:00,
2013-04-27 00:22:00,77.0,65.0,-100.00,North,8,7.0,10.0,66,0.00,,,-99.99,1.000000,,2013-04-27 10:22:00,
2013-04-27 00:32:00,77.0,65.0,-100.00,North,8,7.0,10.0,66,0.00,,,-99.99,1.000000,,2013-04-27 10:32:00,
2013-04-27 01:02:00,76.0,64.0,-100.00,North,9,7.0,12.0,67,0.00,,,0.00,1.000000,,2013-04-27 11:02:00,
2013-04-27 01:11:00,76.0,64.0,-100.00,North,9,7.0,12.0,67,0.00,,,0.00,1.000000,,2013-04-27 11:11:00,
2013-04-27 01:22:00,76.0,64.0,-100.00,North,9,7.0,12.0,67,0.00,,,0.00,1.000000,,2013-04-27 11:22:00,
2013-04-27 01:31:00,76.0,64.0,-100.00,North,9,7.0,12.0,67,0.00,,,0.00,1.000000,,2013-04-27 11:31:00,
2013-04-27 02:01:00,74.0,60.0,-100.00,North,9,8.0,13.0,62,0.00,,,0.00,1.000000,,2013-04-27 12:01:00,
2013-04-27 02:11:00,74.0,60.0,-100.00,North,9,8.0,13.0,62,0.00,,,0.00,1.000000,,2013-04-27 12:11:00,
2013-04-27 02:21:00,74.0,60.0,-100.00,North,9,8.0,13.0,62,0.00,,,0.00,1.000000,,2013-04-27 12:21:00,
2013-04-27 02:32:00,74.0,60.0,-100.00,North,9,8.0,13.0,62,0.00,,,0.00,1.000000,,2013-04-27 12:32:00,
2013-04-27 03:02:00,76.0,62.0,-100.00,North,8,9.0,14.0,61,0.00,,,0.00,1.000000,,2013-04-27 13:02:00,
2013-04-27 03:11:00,76.0,62.0,-100.00,North,8,9.0,14.0,61,0.00,,,0.00,1.000000,,2013-04-27 13:11:00,
2013-04-27 03:21:00,76.0,62.0,-100.00,North,8,9.0,14.0,61,0.00,,,0.00,1.000000,,2013-04-27 13:21:00,
2013-04-27 03:32:00,76.0,62.0,-100.00,North,8,9.0,14.0,61,0.00,,,0.00,1.000000,,2013-04-27 13:32:00,
2013-04-27 04:02:00,76.0,62.0,-100.00,North,9,8.0,14.0,63,0.00,,,0.00,1.000000,,2013-04-27 14:02:00,
2013-04-27 04:11:00,76.0,62.0,-100.00,North,9,8.0,14.0,63,0.00,,,0.00,1.000000,,2013-04-27 14:11:00,
2013-04-27 04:21:00,76.0,62.0,-100.00,North,9,8.0,14.0,63,0.00,,,0.00,1.000000,,2013-04-27 14:21:00,
2013-04-27 04:31:00,76.0,62.0,-100.00,North,9,8.0,14.0,63,0.00,,,0.00,1.000000,,2013-04-27 14:31:00,
2013-04-27 05:01:00,74.0,62.0,-100.00,North,9,7.0,11.0,66,0.00,,,0.00,1.000000,,2013-04-27 15:01:00,
2013-04-27 05:11:00,74.0,62.0,-100.00,North,9,7.0,11.0,66,0.00,,,0.00,1.000000,,2013-04-27 15:11:00,
2013-04-27 05:21:00,74.0,62.0,-100.00,North,9,7.0,11.0,66,0.00,,,0.00,1.000000,,2013-04-27 15:21:00,
2013-04-27 05:33:00,74.0,62.0,-100.00,North,9,7.0,11.0,66,0.00,,,0.00,1.000000,,2013-04-27 15:33:00,
2013-04-27 06:02:00,75.0,61.0,-100.00,North,9,7.0,12.0,61,0.00,,,0.00,0.000000,,2013-04-27 16:02:00,
2013-04-27 06:13:00,75.0,61.0,-100.00,North,9,7.0,12.0,61,0.00,,,0.00,0.000000,,2013-04-27 16:13:00,
2013-04-27 06:22:00,75.0,61.0,-100.00,North,9,7.0,12.0,61,0.00,,,0.00,0.000000,,2013-04-27 16:22:00,
2013-04-27 06:32:00,75.0,61.0,-100.00,North,9,7.0,12.0,61,0.00,,,0.00,0.000000,,2013-04-27 16:32:00,
2013-04-27 07:02:00,75.0,61.0,-100.00,North,10,8.0,12.0,61,0.00,,,0.00,13.000000,,2013-04-27 17:02:00,
2013-04-27 07:11:00,75.0,61.0,-100.00,North,10,8.0,12.0,61,0.00,,,0.00,13.000000,,2013-04-27 17:11:00,
2013-04-27 07:22:00,75.0,61.0,-100.00,North,10,8.0,12.0,61,0.00,,,0.00,13.000000,,2013-04-27 17:22:00,
2013-04-27 07:31:00,75.0,61.0,-100.00,North,10,8.0,12.0,61,0.00,,,0.00,13.000000,,2013-04-27 17:31:00,
2013-04-27 08:02:00,78.0,63.0,-100.00,NNE,12,7.0,14.0,60,0.00,,,0.00,184.000000,,2013-04-27 18:02:00,
2013-04-27 08:11:00,78.0,63.0,-100.00,NNE,12,7.0,14.0,60,0.00,,,0.00,184.000000,,2013-04-27 18:11:00,
2013-04-27 08:22:00,78.0,63.0,-100.00,NNE,12,7.0,14.0,60,0.00,,,0.00,184.000000,,2013-04-27 18:22:00,
2013-04-27 08:32:00,78.0,63.0,-100.00,NNE,12,7.0,14.0,60,0.00,,,0.00,184.000000,,2013-04-27 18:32:00,
2013-04-27 09:02:00,84.0,63.0,-100.00,NNE,18,8.0,15.0,50,0.00,,,0.00,437.000000,,2013-04-27 19:02:00,
2013-04-27 09:11:00,84.0,63.0,-100.00,NNE,18,8.0,15.0,50,0.00,,,0.00,437.000000,,2013-04-27 19:11:00,
2013-04-27 09:21:00,84.0,63.0,-100.00,NNE,18,8.0,15.0,50,0.00,,,0.00,437.000000,,2013-04-27 19:21:00,
2013-04-27 09:31:00,84.0,63.0,-100.00,NNE,18,8.0,15.0,50,0.00,,,0.00,437.000000,,2013-04-27 19:31:00,
2013-04-27 10:02:00,87.0,61.0,-100.00,NNE,15,5.0,14.0,42,0.00,,,0.00,620.000000,,2013-04-27 20:02:00,
2013-04-27 10:11:00,87.0,61.0,-100.00,NNE,15,5.0,14.0,42,0.00,,,0.00,620.000000,,2013-04-27 20:11:00,
2013-04-27 10:21:00,87.0,61.0,-100.00,NNE,15,5.0,14.0,42,0.00,,,0.00,620.000000,,2013-04-27 20:21:00,
2013-04-27 10:31:00,87.0,61.0,-100.00,NNE,15,5.0,14.0,42,0.00,,,0.00,620.000000,,2013-04-27 20:31:00,
2013-04-27 11:02:00,94.0,63.0,-100.00,NE,53,7.0,12.0,36,0.00,,,0.00,700.000000,,2013-04-27 21:02:00,
2013-04-27 11:11:00,94.0,63.0,-100.00,NE,53,7.0,12.0,36,0.00,,,0.00,700.000000,,2013-04-27 21:11:00,
2013-04-27 11:21:00,94.0,63.0,-100.00,NE,53,7.0,12.0,36,0.00,,,0.00,700.000000,,2013-04-27 21:21:00,
2013-04-27 11:32:00,94.0,63.0,-100.00,NE,53,7.0,12.0,36,0.00,,,0.00,700.000000,,2013-04-27 21:32:00,
2013-04-27 12:02:00,85.0,58.0,-100.00,ENE,57,6.0,12.0,40,0.00,,,0.00,535.000000,,2013-04-27 22:02:00,
2013-04-27 12:12:00,85.0,58.0,-100.00,ENE,57,6.0,12.0,40,0.00,,,0.00,535.000000,,2013-04-27 22:12:00,
2013-04-27 12:22:00,85.0,58.0,-100.00,ENE,57,6.0,12.0,40,0.00,,,0.00,535.000000,,2013-04-27 22:22:00,
2013-04-27 12:32:00,85.0,58.0,-100.00,ENE,57,6.0,12.0,40,0.00,,,0.00,535.000000,,2013-04-27 22:32:00,
2013-04-27 13:02:00,88.0,66.0,-100.00,East,90,6.0,13.0,49,0.00,,,0.00,435.000000,,2013-04-27 23:02:00,
2013-04-27 13:11:00,88.0,66.0,-100.00,East,90,6.0,13.0,49,0.00,,,0.00,435.000000,,2013-04-27 23:11:00,
2013-04-27 13:22:00,88.0,66.0,-100.00,East,90,6.0,13.0,49,0.00,,,0.00,435.000000,,2013-04-27 23:22:00,
2013-04-27 13:32:00,88.0,66.0,-100.00,East,90,6.0,13.0,49,0.00,,,0.00,435.000000,,2013-04-27 23:32:00,
2013-04-27 14:01:00,84.0,63.0,-100.00,SE,127,6.0,11.0,49,0.00,,,0.00,436.000000,,2013-04-28 00:01:00,
2013-04-27 14:11:00,84.0,63.0,-100.00,SE,127,6.0,11.0,49,0.00,,,0.00,436.000000,,2013-04-28 00:11:00,
2013-04-27 14:21:00,84.0,63.0,-100.00,SE,127,6.0,11.0,49,0.00,,,0.00,436.000000,,2013-04-28 00:21:00,
2013-04-27 14:31:00,84.0,63.0,-100.00,SE,127,6.0,11.0,49,0.00,,,0.00,436.000000,,2013-04-28 00:31:00,
2013-04-27 15:01:00,84.0,69.0,-100.00,SE,133,5.0,11.0,60,0.00,,,0.00,347.000000,,2013-04-28 01:01:00,
2013-04-27 15:11:00,84.0,69.0,-100.00,SE,133,5.0,11.0,60,0.00,,,0.00,347.000000,,2013-04-28 01:11:00,
2013-04-27 15:21:00,84.0,69.0,-100.00,SE,133,5.0,11.0,60,0.00,,,0.00,347.000000,,2013-04-28 01:21:00,
2013-04-27 15:31:00,84.0,69.0,-100.00,SE,133,5.0,11.0,60,0.00,,,0.00,347.000000,,2013-04-28 01:31:00,
2013-04-27 16:01:00,83.0,62.0,-100.00,ESE,106,5.0,11.0,50,0.00,,,0.00,343.000000,,2013-04-28 02:01:00,
2013-04-27 16:12:00,83.0,62.0,-100.00,ESE,106,5.0,11.0,50,0.00,,,0.00,343.000000,,2013-04-28 02:12:00,
2013-04-27 16:21:00,83.0,62.0,-100.00,ESE,106,5.0,11.0,50,0.00,,,0.00,343.000000,,2013-04-28 02:21:00,
2013-04-27 16:31:00,83.0,62.0,-100.00,ESE,106,5.0,11.0,50,0.00,,,0.00,343.000000,,2013-04-28 02:31:00,
2013-04-27 17:01:00,81.0,64.0,-100.00,East,84,4.0,10.0,57,0.00,,,0.00,191.000000,,2013-04-28 03:01:00,
2013-04-27 17:11:00,81.0,64.0,-100.00,East,84,4.0,10.0,57,0.00,,,0.00,191.000000,,2013-04-28 03:11:00,
2013-04-27 17:21:00,81.0,64.0,-100.00,East,84,4.0,10.0,57,0.00,,,0.00,191.000000,,2013-04-28 03:21:00,
2013-04-27 17:32:00,81.0,64.0,-100.00,East,84,4.0,10.0,57,0.00,,,0.00,191.000000,,2013-04-28 03:32:00,
2013-04-27 18:02:00,78.0,62.0,-100.00,ENE,76,5.0,8.0,59,0.00,,,0.00,115.000000,,2013-04-28 04:02:00,
2013-04-27 18:13:00,78.0,62.0,-100.00,ENE,76,5.0,8.0,59,0.00,,,0.00,115.000000,,2013-04-28 04:13:00,
2013-04-27 18:22:00,78.0,62.0,-100.00,ENE,76,5.0,8.0,59,0.00,,,0.00,115.000000,,2013-04-28 04:22:00,
2013-04-27 18:32:00,78.0,62.0,-100.00,ENE,76,5.0,8.0,59,0.00,,,0.00,115.000000,,2013-04-28 04:32:00,
2013-04-27 19:02:00,78.0,66.0,-100.00,ESE,113,4.0,10.0,66,0.00,,,0.00,40.000000,,2013-04-28 05:02:00,
2013-04-27 19:12:00,78.0,66.0,-100.00,ESE,113,4.0,10.0,66,0.00,,,0.00,40.000000,,2013-04-28 05:12:00,
2013-04-27 19:22:00,78.0,66.0,-100.00,ESE,113,4.0,10.0,66,0.00,,,0.00,40.000000,,2013-04-28 05:22:00,
2013-04-27 19:32:00,78.0,66.0,-100.00,ESE,113,4.0,10.0,66,0.00,,,0.00,40.000000,,2013-04-28 05:32:00,
2013-04-27 20:01:00,76.0,66.0,-100.00,ENE,66,4.0,8.0,71,0.00,,,0.00,3.000000,,2013-04-28 06:01:00,
2013-04-27 20:12:00,76.0,66.0,-100.00,ENE,66,4.0,8.0,71,0.00,,,0.00,3.000000,,2013-04-28 06:12:00,
2013-04-27 20:21:00,76.0,66.0,-100.00,ENE,66,4.0,8.0,71,0.00,,,0.00,3.000000,,2013-04-28 06:21:00,
2013-04-27 20:32:00,76.0,66.0,-100.00,ENE,66,4.0,8.0,71,0.00,,,0.00,3.000000,,2013-04-28 06:32:00,
2013-04-27 21:01:00,76.0,66.0,-100.00,NE,38,6.0,8.0,71,0.00,,,0.00,1.000000,,2013-04-28 07:01:00,
2013-04-27 21:11:00,76.0,66.0,-100.00,NE,38,6.0,8.0,71,0.00,,,0.00,1.000000,,2013-04-28 07:11:00,
2013-04-27 21:21:00,76.0,66.0,-100.00,NE,38,6.0,8.0,71,0.00,,,0.00,1.000000,,2013-04-28 07:21:00,
2013-04-27 21:31:00,76.0,66.0,-100.00,NE,38,6.0,8.0,71,0.00,,,0.00,1.000000,,2013-04-28 07:31:00,
2013-04-27 22:02:00,75.0,66.0,-100.00,NNE,30,5.0,8.0,74,0.00,,,0.00,1.000000,,2013-04-28 08:02:00,
2013-04-27 22:11:00,75.0,66.0,-100.00,NNE,30,5.0,8.0,74,0.00,,,0.00,1.000000,,2013-04-28 08:11:00,
2013-04-27 22:21:00,75.0,66.0,-100.00,NNE,30,5.0,8.0,74,0.00,,,0.00,1.000000,,2013-04-28 08:21:00,
2013-04-27 22:32:00,75.0,66.0,-100.00,NNE,30,5.0,8.0,74,0.00,,,0.00,1.000000,,2013-04-28 08:32:00,
2013-04-27 23:01:00,77.0,64.0,-100.00,NE,48,4.0,8.0,65,0.00,,,0.00,1.000000,,2013-04-28 09:01:00,
2013-04-27 23:11:00,77.0,64.0,-100.00,NE,48,4.0,8.0,65,0.00,,,0.00,1.000000,,2013-04-28 09:11:00,
2013-04-27 23:21:00,77.0,64.0,-100.00,NE,48,4.0,8.0,65,0.00,,,0.00,1.000000,,2013-04-28 09:21:00,
2013-04-27 23:32:00,77.0,64.0,-100.00,NE,48,4.0,8.0,65,0.00,,,0.00,1.000000,,2013-04-28 09:32:00,